Flag for Switzerland Weather past 2 weeks in Grenchen, Solothurn, Switzerland

37 °F

Sprinkles. Partly cloudy.

Feels Like: 27 °F
Forecast: 45 / 49 °F
Wind: 21 mph from West

Location: Grenchen

Current Time: Nov 29, 2015 at 8:37:51 AM

Latest Report: Nov 29, 2015 at 7:50 AM

Visibility: N/A

Pressure: 30.27 "Hg

Humidity: 87%

Dew point: 34 °F

Location of GrenchenLocation

Historic Weather in Grenchen — Graph


Grenchen temperature yesterday

Maximum temperature yesterday: 41 °F (at 2:20 PM)
Minimum temperature yesterday: 25 °F (at 12:50 AM)
Average temperature yesterday: 34 °F

Past Weeks' High & Low Weather Summary

High63 °F (Nov 15, 1:50 PM)100% (Nov 14, 7:20 AM)30.51 "Hg (Nov 14, 7:20 AM)
Low23 °F (Nov 24, 2:20 AM)48% (Nov 15, 12:20 PM)29.45 "Hg (Nov 21, 12:50 PM)
Average42 °F83%30.06 "Hg
* Reported Nov 14 7:20 AM — Nov 29 7:20 AM, Grenchen, Weather by CustomWeather, © 2015

Note: Actual official high and low records may vary slightly from our data, if they occured in-between our weather recording intervals... More about our weather records


Grenchen weather history for previous 24 hours

Time TempWeatherWind HumidityBarometerVisibility
7:20 AM
Sun, Nov 29
37 °FLight rain. Passing clouds.20 mph81%30.27 "HgN/A
6:20 AM37 °FPassing clouds.15 mph81%30.24 "HgN/A
5:50 AM37 °FPartly cloudy.12 mph81%30.24 "HgN/A
5:20 AM36 °FPassing clouds.7 mph87%30.27 "HgN/A
4:50 AM36 °FPassing clouds.8 mph81%30.24 "HgN/A
4:20 AM36 °FPassing clouds.9 mph81%30.24 "HgN/A
3:20 AM36 °FPassing clouds.7 mph81%30.27 "HgN/A
2:50 AM34 °FPassing clouds.7 mph87%30.27 "HgN/A
2:20 AM34 °FOvercast.7 mph87%30.27 "HgN/A
1:50 AM34 °FClear.6 mph87%30.27 "Hg10 mi
1:20 AM36 °FClear.9 mph87%30.27 "Hg10 mi
12:50 AM34 °FClear.6 mph87%30.27 "Hg10 mi
12:20 AM34 °FClear.2 mph87%30.27 "Hg10 mi
11:50 PM
Sat, Nov 28
34 °FClear.3 mph87%30.27 "Hg10 mi
11:20 PM32 °FClear.2 mph87%30.27 "Hg10 mi
10:50 PM30 °FClear.1 mph93%30.27 "Hg10 mi
10:20 PM34 °FClear.1 mph81%30.27 "HgN/A
9:20 PM32 °FClear.3 mph87%30.24 "Hg10 mi
8:50 PM32 °FClear.3 mph93%30.24 "Hg10 mi
8:20 PM30 °FClear.5 mph93%30.24 "Hg10 mi
7:50 PM32 °FClear.5 mph93%30.24 "Hg10 mi
7:20 PM34 °FClear.3 mph81%30.21 "Hg10 mi
6:50 PM36 °FClear.5 mph75%30.21 "Hg10 mi
6:20 PM36 °FChilly.6 mph75%30.21 "HgN/A
5:50 PM37 °FPassing clouds.9 mph70%30.21 "HgN/A
5:20 PM37 °FScattered clouds.13 mph70%30.18 "HgN/A
4:50 PM37 °FPassing clouds.9 mph70%30.18 "HgN/A
4:20 PM39 °FScattered clouds.9 mph70%30.15 "HgN/A
3:50 PM39 °FScattered clouds.8 mph70%30.15 "HgN/A
3:20 PM41 °FScattered clouds.10 mph70%30.12 "HgN/A
2:50 PM39 °FPartly sunny.5 mph81%30.12 "HgN/A
2:20 PM41 °FScattered clouds.7 mph87%30.12 "HgN/A
1:50 PM39 °FPartly sunny.7 mph87%30.12 "HgN/A
1:20 PM39 °FSprinkles. Broken clouds.6 mph87%30.09 "Hg5 mi
12:50 PM39 °FPartly sunny.6 mph87%30.09 "HgN/A
12:20 PM37 °FPartly sunny.6 mph93%30.09 "Hg6 mi
11:50 AM36 °FLight rain. Overcast.6 mph93%30.09 "Hg6 mi
11:20 AM34 °FLight rain. Overcast.6 mph93%30.09 "Hg4 mi
10:50 AM34 °FLight snow. Overcast.8 mph93%30.09 "Hg3 mi
10:20 AM34 °FLight snow. Low clouds.9 mph93%30.07 "Hg2 mi
9:50 AM34 °FLight snow. Overcast.8 mph93%30.07 "Hg1 mi
9:20 AM32 °FSnow. Mostly cloudy.7 mph100%30.04 "Hg1 mi
8:50 AM32 °FLight snow. Mostly cloudy.3 mph100%30.04 "Hg1 mi
Weather by CustomWeather, © 2015

See weather overviewHow to use our weather pages